This is the latest recevied weather packets stored in our database for station/object KA3ZXO. If no packets are shown the sender has not sent any weather packets the latest 10 day(s).
| Time | Temp. | Humidity | Pressure | Rain* | Wind** | Luminosity | Snow |
|---|---|---|---|---|---|---|---|
| 1778005308 | 28.33° C | 36% | 1012.2 hPa | 0 mm | - | 660 W/m² | - |
| 1778004708 | 28.33° C | 38% | 1012.3 hPa | 0 mm | - | 678 W/m² | - |
| 1778004107 | 27.78° C | 37% | 1012.5 hPa | 0 mm | - | 96 W/m² | - |
| 1778003505 | 27.78° C | 38% | 1012.3 hPa | 0 mm | - | 71 W/m² | - |
| 1778002904 | 27.78° C | 39% | 1012.3 hPa | 0 mm | - | 290 W/m² | - |
| 1778002304 | 27.22° C | 41% | 1012.4 hPa | 0 mm | - | 63 W/m² | - |
| 1778001703 | 27.22° C | 42% | 1012.4 hPa | 0 mm | - | 44 W/m² | - |
| 1778001101 | 26.67° C | 41% | 1012.6 hPa | 0 mm | - | 47 W/m² | - |
| 1778000500 | 26.67° C | 43% | 1012.8 hPa | 0 mm | - | 52 W/m² | - |
| 1777999897 | 26.67° C | 42% | 1013 hPa | 0 mm | - | 141 W/m² | - |
| 1777999296 | 25.56° C | 44% | 1013 hPa | 0 mm | - | 280 W/m² | - |
| 1777998691 | 26.11° C | 45% | 1013.3 hPa | 0 mm | - | 42 W/m² | - |
| 1777998086 | 25.56° C | 47% | 1013.3 hPa | 0 mm | - | 49 W/m² | - |
| 1777997486 | 25° C | 47% | 1013.3 hPa | 0 mm | - | 52 W/m² | - |
| 1777996881 | 25° C | 47% | 1013.5 hPa | 0 mm | - | 39 W/m² | - |
| 1777996279 | 24.44° C | 48% | 1013.8 hPa | 0 mm | - | 35 W/m² | - |
| 1777995677 | 23.89° C | 50% | 1013.7 hPa | 0 mm | - | 118 W/m² | - |
| 1777995072 | 23.89° C | 51% | 1013.4 hPa | 0 mm | - | 33 W/m² | - |
| 1777994470 | 23.33° C | 53% | 1013.5 hPa | 0 mm | - | 34 W/m² | - |
| 1777993869 | 22.78° C | 53% | 1013.5 hPa | 0 mm | - | 32 W/m² | - |
| 1777993268 | 23.33° C | 53% | 1013.6 hPa | 0 mm | - | 49 W/m² | - |
| 1777992662 | 22.22° C | 55% | 1013.5 hPa | 0 mm | - | 43 W/m² | - |
| 1777992056 | 21.67° C | 54% | 1013.3 hPa | 0 mm | - | 42 W/m² | - |
| 1777991451 | 21.67° C | 55% | 1013.6 hPa | 0 mm | - | 82 W/m² | - |
| 1777990850 | 21.67° C | 56% | 1013.5 hPa | 0 mm | - | 28 W/m² | - |
* Rain latest hour (hover to see other rain measurements)
** Current wind speed in m/s (hover to see current wind gust speed)